Regional Weather Roundup
Issued by NWS Albany, NY

Home | Current Version | Previous Version | Text Only | Print | Product List | Glossary On
Versions: 1 2 3 4 5 6 7 8 9 10 11 12 13 14 15 16 17 18 19 20 21 22 23 24 25 26
000
ASUS41 KALY 261110
RWRALY

NEW YORK STATE HOURLY WEATHER ROUNDUP
NATIONAL WEATHER SERVICE ALBANY NY
700 AM EDT WED APR 26 2017

NOTE: "FAIR" INDICATES FEW OR NO CLOUDS BELOW 12,000 FEET WITH NO
SIGNIFICANT WEATHER AND/OR NO OBSTRUCTIONS TO VISIBILITY.

NYZ032-033-038>043-046>054-057>066-NYZ062>081-082-084-261200-
EAST


CITY           SKY/WX    TMP DP  RH WIND       PRES   REMARKS
ALBANY         LGT RAIN  50  48  93 N5        29.87F FOG
GLENS FALLS    LGT RAIN  50  47  89 N9        29.89F
POUGHKEEPSIE   CLOUDY    51  50  96 N8        29.81S FOG
NEWBURGH       LGT RAIN  52  52 100 N8        29.83R FOG
MONTGOMERY     LGT RAIN  52  50  93 NE12      29.81R
WHITE PLAINS   LGT RAIN  54  51  90 NE10      29.76S FOG
ISLIP          FOG       51  51 100 N13       29.74S VSB 1/4
NEW YORK CITY  LGT RAIN  54  52  93 NE9       29.75S FOG
CENTRAL PARK   LGT RAIN  54  53  97 VRB7      29.78S FOG
$$

NYZ005>009-017-018-044>046-055-056-261200-
CENTRAL


CITY           SKY/WX    TMP DP  RH WIND       PRES   REMARKS
FULTON         CLOUDY    53  48  83 E7        29.83S
SYRACUSE       CLOUDY    50  48  93 NE7       29.83S
ROME           CLOUDY    51  49  92 CALM      29.86F
ELMIRA         CLOUDY    55  51  86 NE5       29.80S
BINGHAMTON     CLOUDY    50  48  93 NE5       29.80F
MONTICELLO     CLOUDY    50  48  93 E12G20    29.82S
$$

NYZ026>034-041>043-087-261200-
NORTH


CITY           SKY/WX    TMP DP  RH WIND       PRES   REMARKS
WATERTOWN      CLOUDY    51  51 100 NE7       29.85S
FORT DRUM      NOT AVBL
OGDENSBURG     MOCLDY    50  49  97 E6        29.88S
MASSENA        CLOUDY    50  48  93 NE8       29.91S
SARANAC LAKE   CLOUDY    49  49 100 NE5       29.87S
PLATTSBURGH    LGT RAIN  48  46  93 CALM      29.92F
$$

NYZ001>004-010>016-019>021-085-261200-
WEST


CITY           SKY/WX    TMP DP  RH WIND       PRES   REMARKS
NIAGARA FALLS  CLEAR     51  47  86 E5        29.78S
BUFFALO        PTCLDY    53  50  89 E5        29.79S
DUNKIRK        CLOUDY    54  51  90 E3        29.78S
JAMESTOWN      CLOUDY    54  48  82 S3        29.79R
WELLSVILLE     CLOUDY    52  50  93 SE5       29.81R
ROCHESTER      CLOUDY    54  50  86 SE7       29.81R
PENN YAN       CLOUDY    53  48  83 CALM      29.82R
$$

             KEY
       WCI = WIND CHILL INDEX
       VSB = VISIBILITY
       HX  = HEAT INDEX
$$




USA.gov is the U.S. government's official web portal to all federal, state and local government web resources and services.